Location: Dehesa de la Cepeda
(40.6574°N, 4.3013°W)
Time: 04:09:04
(UTC+00:00)

ISS - Pass Details

Date: 25 June 2021
Orbit: 419 x 421 km, 51.6° (Epoch: 29 July)

Event Time Altitude Azimuth Distance (km) Brightness Sun altitude
Exits shadow 03:44:14 - 179° (S) 1,759 -1.0 -10.3°
Reaches altitude 10° 03:45:13 10° 167° (SSE) 1,490 -1.3 -10.2°
Maximum altitude 03:47:13 15° 130° (SE) 1,221 -1.3 -9.9°
Drops below altitude 10° 03:49:14 10° 93° (E) 1,496 -0.3 -9.6°
Sets 03:51:58 0° 70° (ENE) 2,364 1.5 -9.2°
